カタログに戻る

THOR ABLESTAR DEB

運用中LEO
NORAD 649·DEBRIS·🇺🇸 United States

打ち上げ Jun 29, 1961 から Cape Canaveral Space Force Station

Loading…

次のパス (今後24時間)

TLE

最新Source: Space-Track

元期: Sep 13, 2026, 09:00 UTC

1   649U 61015HA  26256.37552338 -.00000018  00000-0  11523-3 0  9994
2   649  66.2691 353.2050 0557835   0.7714  56.9932 12.65331808  3791

AllMySatでTHOR ABLESTAR DEBをリアルタイム追跡

Download on the App Store